Location: Newark
(41.8922°N, 9.0050°E)
Time: 10:45:08
(UTC+00:00)

Envisat - Pass Details

Date: 31 January 2020
Orbit: 764 x 766 km, 98.1° (Epoch: 19 February)

Event Time Altitude Azimuth Distance (km) Brightness Sun altitude
Rises 05:49:01 0° 16° (NNE) 3,240 6.3 -9.5°
Reaches altitude 10° 05:51:22 10° 20° (NNE) 2,309 5.6 -9.1°
Maximum altitude 05:56:24 60° 101° (E) 877 3.7 -8.2°
Drops below altitude 10° 06:01:23 10° 181° (S) 2,293 5.7 -7.3°
Sets 06:03:43 0° 185° (S) 3,214 6.4 -6.9°
